GW4197 Weather Reports


time (UTC)temp
C
wind
direction
speed
KPH
gust
KPH
rain 1hr
cm
rain 24hr
cm
rain mn
cm
humidity
%
barometer
mb
20260505041544 7 223 22.5 35.4 0.00 0.00 0.00 82 1006.0
20260505041030 7 222 19.3 35.4 0.00 0.00 0.00 81 1005.9
20260505040533 7 238 19.3 35.4 0.00 0.00 0.00 81 1005.9
20260505040049 7 176 20.9 35.4 0.00 0.00 0.00 81 1005.8
20260505035532 7 264 19.3 35.4 0.00 0.00 0.00 81 1005.8
20260505035031 7 231 20.9 38.6 0.00 0.00 0.00 80 1005.8
20260505034542 7 270 22.5 38.6 0.00 0.00 0.00 80 1005.6
20260505034031 8 235 24.1 40.2 0.00 0.00 0.00 80 1005.6
20260505033531 8 257 20.9 40.2 0.00 0.00 0.00 79 1005.5
20260505033040 8 261 27.4 38.6 0.00 0.00 0.00 79 1005.4
20260505032531 8 269 24.1 38.6 0.00 0.00 0.00 79 1005.3
20260505032030 8 264 24.1 38.6 0.00 0.00 0.00 79 1005.3
20260505031549 8 236 27.4 41.8 0.00 0.00 0.00 80 1005.1
20260505031031 8 260 25.7 41.8 0.00 0.00 0.00 79 1005.0
20260505030531 8 242 27.4 41.8 0.00 0.00 0.00 78 1005.1
20260505030044 8 243 27.4 41.8 0.00 0.00 0.00 79 1004.9
20260505025532 8 244 25.7 41.8 0.00 0.00 0.00 78 1004.9
20260505025031 8 230 24.1 45.1 0.00 0.00 0.00 77 1004.8
20260505024544 8 248 29.0 45.1 0.00 0.00 0.00 77 1004.7
20260505024031 8 250 29.0 43.5 0.00 0.00 0.00 77 1004.6
20260505023533 8 230 29.0 46.7 0.00 0.00 0.00 76 1004.5
20260505023050 8 276 29.0 48.3 0.00 0.00 0.00 76 1004.5
20260505022531 9 250 30.6 48.3 0.00 0.00 0.00 75 1004.4
20260505022031 9 162 27.4 46.7 0.00 0.00 0.00 74 1004.3
20260505021544 9 253 29.0 45.1 0.00 0.00 0.00 74 1004.3
20260505021032 9 182 27.4 46.7 0.00 0.00 0.00 74 1004.3
20260505020531 9 252 30.6 46.7 0.00 0.00 0.00 75 1004.2
20260505020039 8 245 29.0 51.5 0.00 0.00 0.00 75 1004.2
20260505015532 9 227 29.0 51.5 0.00 0.00 0.00 74 1004.1
20260505015033 9 256 32.2 51.5 0.00 0.00 0.00 75 1004.0
20260505014541 9 250 35.4 49.9 0.00 0.00 0.00 74 1004.0
20260505014033 9 230 32.2 46.7 0.00 0.00 0.00 73 1003.9
20260505013532 9 250 29.0 51.5 0.00 0.00 0.00 74 1003.8
20260505013100 9 224 24.1 51.5 0.00 0.00 0.00 73 1003.7
20260505012537 9 185 29.0 48.3 0.00 0.00 0.00 72 1003.7
20260505012030 9 250 25.7 41.8 0.00 0.00 0.00 74 1003.5
20260505011547 9 229 24.1 41.8 0.00 0.00 0.00 75 1003.5
20260505011032 9 233 22.5 40.2 0.00 0.00 0.00 74 1003.5
20260505010531 9 197 19.3 37.0 0.00 0.00 0.00 73 1003.3
20260505010051 9 278 20.9 40.2 0.00 0.00 0.00 73 1003.3
20260505005533 10 265 22.5 40.2 0.00 0.00 0.00 72 1003.3
20260505005031 9 293 20.9 33.8 0.00 0.00 0.00 72 1003.3
20260505004540 9 107 19.3 30.6 0.00 0.00 0.00 73 1003.3
20260505004031 9 231 19.3 33.8 0.00 0.00 0.00 73 1003.2
20260505003533 9 242 22.5 43.5 0.00 0.00 0.00 72 1003.3
20260505003044 9 210 22.5 43.5 0.00 0.00 0.00 72 1003.3
20260505002533 9 243 24.1 33.8 0.00 0.00 0.00 73 1003.3
20260505002034 9 253 17.7 35.4 0.00 0.00 0.00 73 1003.3
20260505001542 9 241 22.5 43.5 0.00 0.00 0.00 72 1003.2
20260505001034 9 202 24.1 45.1 0.00 0.00 0.00 72 1003.2
20260505000535 10 224 27.4 45.1 0.00 0.00 0.00 71 1002.9
20260505000054 9 284 27.4 49.9 0.00 0.00 0.00 71 1002.8
20260504235531 9 240 29.0 49.9 0.00 0.00 0.00 71 1002.8
20260504235031 9 226 27.4 46.7 0.00 0.00 0.00 71 1002.6
20260504234543 9 255 32.2 43.5 0.00 0.00 0.00 71 1002.7
20260504234031 8 188 22.5 41.8 0.00 0.00 0.00 73 1002.6
20260504233531 8 264 22.5 41.8 0.00 0.00 0.00 69 1002.6
20260504233047 9 250 27.4 41.8 0.00 0.00 0.00 65 1002.5
20260504232531 8 244 24.1 45.1 0.00 0.00 0.00 65 1002.5
20260504232030 9 261 27.4 46.7 0.00 0.00 0.00 64 1002.5
20260504231543 9 252 29.0 46.7 0.00 0.00 0.00 63 1002.4
20260504231030 9 240 25.7 46.7 0.00 0.00 0.00 62 1002.2
20260504230530 10 223 27.4 38.6 0.00 0.00 0.00 62 1002.2
20260504230044 9 237 27.4 38.6 0.00 0.00 0.00 63 1002.2
20260504225532 9 231 20.9 32.2 0.00 0.00 0.00 65 1002.1
20260504225030 8 257 17.7 32.2 0.00 0.00 0.00 66 1002.1
20260504224543 8 255 16.1 27.4 0.00 0.00 0.00 68 1002.1
20260504224031 8 244 12.9 30.6 0.00 0.00 0.00 69 1002.1
20260504223531 8 255 20.9 33.8 0.00 0.00 0.00 66 1001.9
20260504223047 8 245 20.9 40.2 0.00 0.00 0.00 65 1001.8
20260504222533 10 228 24.1 40.2 0.00 0.00 0.00 62 1001.8
20260504222031 10 250 25.7 40.2 0.00 0.00 0.00 59 1001.8
20260504221549 10 240 25.7 40.2 0.00 0.00 0.00 60 1001.7
20260504221034 10 245 24.1 35.4 0.00 0.00 0.00 60 1001.6
20260504220532 10 255 20.9 35.4 0.00 0.00 0.00 60 1001.7
20260504220049 10 233 20.9 35.4 0.00 0.00 0.00 59 1001.6
20260504215532 10 198 22.5 40.2 0.00 0.00 0.00 60 1001.7
20260504215034 10 198 22.5 40.2 0.00 0.00 0.00 59 1001.5
20260504214555 10 176 24.1 37.0 0.00 0.00 0.00 59 1001.5
20260504214031 10 266 24.1 37.0 0.00 0.00 0.00 61 1001.4
20260504213533 10 252 24.1 37.0 0.00 0.00 0.00 60 1001.5
20260504213057 10 255 24.1 40.2 0.00 0.00 0.00 60 1001.5
20260504212531 10 265 22.5 40.2 0.00 0.00 0.00 61 1001.4
20260504212033 10 240 25.7 40.2 0.00 0.00 0.00 60 1001.3
20260504211542 10 240 25.7 38.6 0.00 0.00 0.00 59 1001.3
20260504211031 10 230 25.7 38.6 0.00 0.00 0.00 61 1001.2
20260504210531 10 222 25.7 38.6 0.00 0.00 0.00 60 1001.2
20260504210042 10 222 25.7 37.0 0.00 0.00 0.00 62 1001.1
20260504205532 10 245 22.5 41.8 0.00 0.00 0.00 61 1001.0
20260504205033 10 233 25.7 41.8 0.00 0.00 0.00 62 1001.0
20260504204540 9 238 24.1 41.8 0.00 0.00 0.00 63 1001.0
20260504204031 9 237 22.5 37.0 0.00 0.00 0.00 66 1001.0
20260504203532 9 252 25.7 37.0 0.00 0.00 0.00 63 1000.8
20260504203043 9 236 24.1 40.2 0.00 0.00 0.00 64 1000.9
20260504202532 9 238 24.1 40.2 0.00 0.00 0.00 66 1000.8
20260504202031 9 221 27.4 41.8 0.00 0.00 0.00 65 1000.8
20260504201559 9 246 27.4 41.8 0.00 0.00 0.00 66 1000.7
20260504201033 9 238 25.7 43.5 0.00 0.00 0.00 66 1000.7
20260504200530 8 261 27.4 43.5 0.00 0.00 0.00 67 1000.6
20260504200046 8 252 27.4 43.5 0.00 0.00 0.00 67 1000.5
20260504195530 8 250 29.0 43.5 0.00 0.00 0.00 67 1000.4
20260504195030 8 259 29.0 43.5 0.00 0.00 0.00 68 1000.3
20260504194547 8 228 32.2 43.5 0.00 0.00 0.00 68 1000.2
20260504194031 8 235 30.6 43.5 0.00 0.00 0.00 69 1000.1
20260504193534 8 246 29.0 49.9 0.00 0.00 0.00 70 1000.1
20260504193040 8 255 29.0 49.9 0.00 0.00 0.00 71 1000.0
20260504192532 8 252 29.0 45.1 0.00 0.00 0.00 72 999.9
20260504192032 8 253 30.6 45.1 0.00 0.00 0.00 73 999.8
20260504191548 8 262 30.6 45.1 0.00 0.00 0.00 74 999.6
20260504191032 8 243 29.0 45.1 0.00 0.00 0.00 75 999.5
20260504190536 8 235 30.6 46.7 0.00 0.00 0.00 76 999.7
20260504190058 7 252 29.0 46.7 0.00 0.00 0.00 77 999.7
20260504185534 7 251 29.0 45.1 0.00 0.00 0.00 77 999.6
20260504185032 7 224 29.0 43.5 0.00 0.00 0.00 77 999.7
20260504184559 7 255 30.6 46.7 0.00 0.00 0.00 78 999.7
20260504184032 7 259 29.0 46.7 0.00 0.00 0.00 78 999.5
20260504183533 7 248 30.6 43.5 0.00 0.00 0.00 78 999.5
20260504183042 7 245 29.0 49.9 0.00 0.00 0.00 80 999.5
20260504182532 7 239 29.0 49.9 0.00 0.00 0.00 80 999.3
20260504182054 7 256 30.6 46.7 0.00 0.00 0.00 80 999.2
20260504182051 7 243 30.6 48.3 0.00 0.00 0.00 80 999.2